"startDT [UTC]","vpos","CH4 [ppm]","stdev(CH4) [ppm]","CO2 [ppm]","stdev(CO2) [ppm]","H2O [ppm]","stdev(H2O)","p_LGR [torr]","T_LGR [C]","mt1_LGR [us]","mt2_LGR [us]","T_ECpre [C]","T_EC1 [C]","T_EC2 [C]","p_inlet [hPa]","p_in [hPa]","p_out [hPa]","T_inlet [C]","RH_inlet [%]","dwpt_inlet [C]","T_vent [C]","RH_vent [%]","dwpt_vent [C]","flow_vent [l min-1]","flow_inlet [l min-1]","dwpt_sample [C]","T_room [C]"
2012-07-08 00:00:00,0.0,,,,,,,,,,,0.94,-26.16,18.53,-60,543,-926,26.0,18.1,-0.1,25.9,1.5,-30.1,5.73,2.34,-27.1,30.3
2012-07-08 00:01:00,0.0,,,,,,,,,,,0.92,-26.15,18.55,-60,543,-926,26.0,18.2,-0.0,25.9,1.5,-30.1,5.73,2.36,-27.1,30.3
2012-07-08 00:02:00,0.0,,,,,,,,,,,0.92,-26.15,18.56,-60,543,-926,26.0,17.9,-0.3,25.9,1.5,-30.1,5.73,2.37,-27.1,30.3
2012-07-08 00:03:00,0.0,,,,,,,,,,,0.92,-26.15,18.58,-60,543,-926,26.0,18.1,-0.1,25.9,1.5,-30.1,5.73,2.36,-27.1,30.3
2012-07-08 00:04:00,0.0,,,,,,,,,,,0.93,-26.15,18.60,-60,543,-926,26.0,18.2,-0.1,25.9,1.5,-30.1,5.73,2.34,-27.1,30.3
2012-07-08 00:05:00,0.0,,,,,,,,,,,0.92,-26.14,18.61,-60,543,-926,26.0,17.5,-0.6,25.9,1.5,-30.1,5.73,2.34,-27.1,30.3
2012-07-08 00:06:00,0.0,,,,,,,,,,,0.96,-26.14,18.58,-60,543,-926,26.0,18.0,-0.2,25.9,1.5,-30.1,5.73,2.36,-27.1,30.3
2012-07-08 00:07:00,0.0,,,,,,,,,,,1.16,-26.13,17.38,-60,543,-926,26.0,18.3,0.1,25.9,1.5,-30.0,5.73,2.37,-27.1,30.3
2012-07-08 00:08:00,0.0,1.8950,0.0010,390.61,0.32,57.0,28.1,138.03,33.33,24.65,36.38,1.07,-26.13,15.17,-60,543,-926,26.0,18.6,0.3,26.0,1.5,-30.0,5.73,2.35,-27.1,30.3
2012-07-08 00:09:00,0.0,1.8955,0.0014,390.74,0.33,59.0,40.9,138.03,33.32,24.65,36.38,0.90,-26.16,12.78,-60,543,-926,26.0,18.4,0.1,25.9,1.5,-30.1,5.73,2.35,-27.1,30.3
2012-07-08 00:10:00,0.0,1.8949,0.0010,390.80,0.32,61.1,28.7,138.03,33.31,24.65,36.38,1.02,-26.19,10.40,-60,543,-926,26.0,18.3,0.1,25.9,1.5,-30.2,5.73,2.34,-27.1,30.4
2012-07-08 00:11:00,0.0,,,,,,,,,,,1.05,-26.21,8.10,-60,543,-926,26.0,18.5,0.2,26.0,1.5,-30.2,5.73,2.35,-27.1,30.4
2012-07-08 00:12:00,0.0,,,,,,,,,,,1.08,-26.21,5.90,-60,543,-926,26.0,18.5,0.2,26.0,1.5,-30.3,5.73,2.37,-27.1,30.3
2012-07-08 00:13:00,0.0,,,,,,,,,,,0.99,-26.20,3.83,-60,543,-926,26.0,18.7,0.3,26.0,1.5,-30.2,5.73,2.36,-27.1,30.3
2012-07-08 00:14:00,0.0,,,,,,,,,,,1.04,-26.20,1.85,-60,543,-926,26.0,18.0,-0.1,26.0,1.5,-30.3,5.73,2.35,-27.1,30.3
2012-07-08 00:15:00,0.0,,,,,,,,,,,1.10,-26.19,-0.02,-60,543,-926,26.0,17.8,-0.3,26.0,1.5,-30.2,5.73,2.34,-27.1,30.3
2012-07-08 00:16:00,0.0,,,,,,,,,,,0.98,-26.18,-1.79,-60,543,-926,26.0,17.9,-0.2,25.9,1.5,-30.2,5.73,2.35,-27.1,30.3
2012-07-08 00:17:00,0.0,,,,,,,,,,,1.03,-26.17,-3.43,-60,543,-926,26.0,18.5,0.2,25.9,1.5,-30.2,5.73,2.35,-27.2,30.3
2012-07-08 00:18:00,0.0,,,,,,,,,,,1.10,-26.17,-4.64,-60,543,-925,26.0,18.8,0.5,26.0,1.5,-30.0,5.73,2.37,-27.1,30.3
2012-07-08 00:19:00,0.0,,,,,,,,,,,0.97,-26.17,-6.02,-60,543,-926,26.0,18.9,0.6,26.0,1.5,-30.0,5.73,2.37,-27.2,30.3
2012-07-08 00:20:00,0.0,,,,,,,,,,,1.02,-26.16,-7.38,-60,543,-926,26.0,18.0,-0.2,26.0,1.5,-30.1,5.73,2.35,-27.2,30.3
2012-07-08 00:21:00,0.0,,,,,,,,,,,1.10,-26.16,-8.67,-60,543,-926,26.0,18.4,0.2,26.0,1.5,-30.1,5.73,2.34,-27.2,30.3
2012-07-08 00:22:00,0.0,,,,,,,,,,,1.00,-26.16,-9.83,-60,543,-925,26.0,19.2,0.7,26.0,1.5,-30.0,5.73,2.35,-27.2,30.3
2012-07-08 00:23:00,0.0,,,,,,,,,,,0.99,-26.16,-10.94,-60,543,-926,26.0,18.4,0.1,26.0,1.5,-30.1,5.73,2.35,-27.2,30.3
2012-07-08 00:24:00,0.0,,,,,,,,,,,1.07,-26.15,-11.92,-60,543,-926,26.0,18.1,-0.1,26.0,1.5,-30.1,5.73,2.36,-27.1,30.3
2012-07-08 00:25:00,0.0,,,,,,,,,,,1.06,-26.15,-12.95,-60,543,-926,26.0,18.8,0.5,26.0,1.5,-30.1,5.73,2.37,-27.2,30.3
2012-07-08 00:26:00,0.0,,,,,,,,,,,0.97,-26.16,-13.94,-60,543,-926,26.0,18.9,0.5,26.0,1.5,-30.1,5.73,2.36,-27.2,30.4
2012-07-08 00:27:00,0.0,,,,,,,,,,,1.02,-26.17,-14.85,-60,543,-926,26.0,19.5,1.0,26.0,1.5,-30.1,5.73,2.35,-27.1,30.4
2012-07-08 00:28:00,0.0,,,,,,,,,,,1.08,-26.17,-15.74,-60,543,-926,26.0,18.7,0.4,26.0,1.5,-30.2,5.73,2.35,-27.1,30.3
2012-07-08 00:29:00,0.0,,,,,,,,,,,0.99,-26.18,-16.58,-60,543,-926,26.1,18.4,0.2,26.0,1.5,-30.2,5.73,2.35,-27.1,30.3
2012-07-08 00:30:00,0.0,,,,,,,,,,,0.99,-26.18,-17.34,-60,543,-926,26.1,18.5,0.3,26.0,1.5,-30.2,5.73,2.36,-27.2,30.3
2012-07-08 00:31:00,0.0,,,,,,,,,,,1.06,-26.19,-17.96,-60,543,-926,26.1,18.6,0.3,26.0,1.5,-30.2,5.73,2.36,-27.2,30.3
2012-07-08 00:32:00,0.0,,,,,,,,,,,1.05,-26.20,-18.65,-60,543,-925,26.1,17.9,-0.2,26.0,1.5,-30.3,5.73,2.37,-27.1,30.4
2012-07-08 00:33:00,0.0,,,,,,,,,,,0.97,-26.21,-19.31,-60,543,-926,26.1,17.9,-0.2,26.0,1.5,-30.2,5.73,2.36,-27.1,30.4
2012-07-08 00:34:00,0.0,,,,,,,,,,,0.99,-26.22,-19.94,-60,543,-926,26.1,17.5,-0.5,26.0,1.5,-30.2,5.73,2.35,-27.1,30.4
2012-07-08 00:35:00,0.0,,,,,,,,,,,1.06,-26.23,-20.53,-60,543,-926,26.1,18.0,-0.1,26.0,1.5,-30.2,5.73,2.35,-27.2,30.3
2012-07-08 00:36:00,0.0,,,,,,,,,,,1.05,-26.24,-21.07,-60,543,-926,26.1,18.1,-0.0,26.0,1.5,-30.2,5.73,2.35,-27.2,30.3
2012-07-08 00:37:00,0.0,,,,,,,,,,,0.98,-26.25,-21.58,-60,543,-926,26.1,18.6,0.4,26.0,1.5,-30.2,5.73,2.36,-27.1,30.3
2012-07-08 00:38:00,0.0,,,,,,,,,,,0.99,-26.26,-22.06,-60,543,-926,26.1,18.1,0.0,26.0,1.5,-30.2,5.73,2.37,-27.1,30.3
2012-07-08 00:39:00,0.0,,,,,,,,,,,1.06,-26.27,-22.52,-60,543,-926,26.1,18.5,0.2,26.0,1.5,-30.2,5.73,2.36,-27.2,30.3
2012-07-08 00:40:00,0.0,,,,,,,,,,,1.05,-26.28,-22.94,-60,543,-926,26.1,18.3,0.1,26.0,1.5,-30.2,5.73,2.35,-27.2,30.4
2012-07-08 00:41:00,0.0,,,,,,,,,,,0.98,-26.29,-23.34,-60,543,-926,26.1,18.5,0.3,26.0,1.5,-30.3,5.73,2.35,-27.2,30.4
2012-07-08 00:42:00,0.0,,,,,,,,,,,0.98,-26.30,-23.72,-60,543,-926,26.1,18.8,0.5,26.0,1.5,-30.4,5.73,2.35,-27.2,30.4
2012-07-08 00:43:00,0.0,,,,,,,,,,,1.04,-26.31,-24.07,-60,543,-926,26.1,18.6,0.4,26.0,1.4,-30.5,5.73,2.35,-27.2,30.4
2012-07-08 00:44:00,0.0,,,,,,,,,,,1.06,-26.32,-24.40,-60,543,-926,26.1,18.9,0.6,26.0,1.4,-30.4,5.73,2.36,-27.2,30.4
2012-07-08 00:45:00,0.0,,,,,,,,,,,1.01,-26.33,-24.71,-60,544,-925,26.1,18.1,0.0,26.0,1.4,-30.4,5.73,2.37,-27.2,30.4
2012-07-08 00:46:00,0.0,,,,,,,,,,,0.96,-26.34,-25.01,-60,543,-926,26.1,18.1,-0.0,26.0,1.4,-30.5,5.73,2.36,-27.2,30.4
2012-07-08 00:47:00,0.0,,,,,,,,,,,1.01,-26.35,-25.29,-60,543,-925,26.1,18.7,0.4,26.0,1.4,-30.4,5.73,2.35,-27.1,30.4
2012-07-08 00:48:00,0.0,,,,,,,,,,,1.08,-26.36,-25.55,-60,543,-926,26.1,18.9,0.7,26.0,1.4,-30.4,5.73,2.35,-27.2,30.4
2012-07-08 00:49:00,0.0,,,,,,,,,,,1.02,-26.38,-25.80,-60,543,-925,26.1,19.4,1.0,26.0,1.4,-30.4,5.73,2.34,-27.2,30.4
2012-07-08 00:50:00,0.0,,,,,,,,,,,0.96,-26.39,-26.03,-60,543,-926,26.1,18.8,0.5,26.0,1.4,-30.4,5.73,2.35,-27.2,30.4
2012-07-08 00:51:00,0.0,,,,,,,,,,,0.99,-26.39,-26.25,-60,543,-926,26.1,18.9,0.6,26.0,1.4,-30.4,5.73,2.36,-27.2,30.5
2012-07-08 00:52:00,0.0,,,,,,,,,,,0.99,-26.40,-26.39,-61,543,-926,26.1,19.0,0.7,26.0,1.4,-30.4,5.73,2.36,-27.2,30.5
2012-07-08 00:53:00,0.0,,,,,,,,,,,1.03,-26.41,-26.14,-60,543,-926,26.1,18.6,0.4,26.0,1.4,-30.4,5.73,2.36,-27.2,30.5
2012-07-08 00:54:00,0.0,,,,,,,,,,,1.22,-44.79,-45.24,-60,543,-926,26.1,19.1,0.7,26.0,1.4,-30.4,5.42,2.43,-31.3,30.5
2012-07-08 00:55:00,0.0,,,,,,,,,,,0.99,-26.43,-26.40,-60,544,-926,26.1,19.2,0.8,26.0,1.4,-30.4,5.73,2.35,-27.2,30.5
2012-07-08 00:56:00,0.0,,,,,,,,,,,1.00,-26.44,-26.29,-61,543,-925,26.1,18.8,0.5,26.0,1.4,-30.4,5.73,2.35,-27.2,30.5
2012-07-08 00:57:00,0.0,,,,,,,,,,,0.98,-26.45,-26.19,-60,543,-926,26.1,18.5,0.3,26.1,1.4,-30.4,5.73,2.35,-27.2,30.4
2012-07-08 00:58:00,0.0,,,,,,,,,,,1.01,-26.46,-26.34,-60,543,-926,26.2,19.0,0.7,26.0,1.4,-30.4,5.73,2.36,-27.2,30.4
2012-07-08 00:59:00,0.0,,,,,,,,,,,1.01,-26.47,-26.45,-60,543,-926,26.2,18.8,0.6,26.1,1.4,-30.4,5.73,2.36,-27.2,30.5
2012-07-08 01:00:00,0.0,,,,,,,,,,,1.05,-26.48,-26.21,-60,544,-925,26.1,18.6,0.4,26.1,1.4,-30.5,5.73,2.36,-27.2,30.5
2012-07-08 01:01:00,0.0,,,,,,,,,,,1.04,-26.49,-26.30,-60,544,-926,26.2,19.5,1.1,26.1,1.4,-30.6,5.73,2.36,-27.2,30.5
2012-07-08 01:02:00,0.0,,,,,,,,,,,0.96,-26.49,-26.47,-60,544,-925,26.2,19.6,1.2,26.1,1.4,-30.6,5.73,2.35,-27.1,30.5
2012-07-08 01:03:00,0.0,,,,,,,,,,,1.01,-26.50,-26.33,-60,543,-926,26.2,19.2,0.9,26.1,1.4,-30.6,5.73,2.35,-27.1,30.5
2012-07-08 01:04:00,0.0,,,,,,,,,,,0.99,-26.51,-26.25,-61,544,-926,26.2,19.5,1.1,26.1,1.4,-30.6,5.73,2.35,-27.2,30.5
2012-07-08 01:05:00,0.0,,,,,,,,,,,0.99,-26.43,-26.40,-61,544,-926,26.2,19.1,0.8,26.1,1.4,-30.5,5.73,2.36,-27.2,30.4
2012-07-08 01:06:00,0.0,,,,,,,,,,,0.91,-25.29,-26.58,-61,543,-926,26.2,20.2,1.6,26.1,1.4,-30.5,5.73,2.36,-27.2,30.5
2012-07-08 01:07:00,0.0,,,,,,,,,,,0.94,-23.40,-26.70,-61,544,-926,26.2,19.3,1.0,26.1,1.6,-29.3,5.73,2.36,-27.2,30.5
2012-07-08 01:08:00,0.0,1.8950,0.0010,390.61,0.32,57.0,28.1,138.03,33.33,24.65,36.38,0.95,-21.44,-26.78,-60,544,-926,26.2,18.6,0.5,26.1,1.7,-28.4,5.73,2.35,-27.2,30.4
2012-07-08 01:09:00,0.0,1.8955,0.0014,390.74,0.33,59.0,40.9,138.03,33.32,24.65,36.38,0.94,-19.55,-26.82,-60,544,-925,26.2,19.4,1.0,26.1,1.8,-27.9,5.73,2.35,-27.2,30.5
2012-07-08 01:10:00,0.0,1.8949,0.0010,390.80,0.32,61.1,28.7,138.03,33.31,24.65,36.38,0.90,-17.73,-26.84,-60,544,-926,26.2,19.7,1.3,26.1,1.8,-27.8,5.73,2.35,-27.2,30.5
2012-07-08 01:11:00,0.0,,,,,,,,,,,0.87,-16.01,-26.85,-60,544,-926,26.2,18.8,0.6,26.1,1.8,-28.0,5.73,2.36,-27.2,30.5
2012-07-08 01:12:00,0.0,,,,,,,,,,,0.89,-14.38,-26.85,-60,544,-925,26.2,18.8,0.6,26.2,1.8,-28.2,5.73,2.36,-27.2,30.6
2012-07-08 01:13:00,0.0,,,,,,,,,,,0.90,-12.85,-26.84,-61,544,-926,26.2,18.8,0.6,26.2,1.7,-28.4,5.73,2.36,-27.2,30.6
2012-07-08 01:14:00,0.0,,,,,,,,,,,0.91,-11.39,-26.84,-61,544,-925,26.3,19.4,1.1,26.2,1.7,-28.6,5.73,2.36,-27.1,30.6
2012-07-08 01:15:00,0.0,,,,,,,,,,,0.94,-10.01,-26.82,-61,544,-926,26.3,19.6,1.3,26.2,1.7,-28.8,5.73,2.34,-27.1,30.6
2012-07-08 01:16:00,0.0,,,,,,,,,,,0.95,-8.70,-26.82,-61,544,-925,26.3,18.7,0.6,26.2,1.6,-28.9,5.73,2.34,-27.1,30.6
2012-07-08 01:17:00,0.0,,,,,,,,,,,0.96,-7.46,-26.80,-61,544,-925,26.3,18.8,0.7,26.2,1.6,-29.1,5.73,2.36,-27.1,30.6
2012-07-08 01:18:00,0.0,,,,,,,,,,,0.95,-6.26,-26.79,-60,544,-926,26.3,19.0,0.8,26.2,1.6,-29.3,5.73,2.37,-27.1,30.6
2012-07-08 01:19:00,0.0,,,,,,,,,,,0.90,-5.14,-26.78,-61,544,-925,26.3,19.2,1.0,26.2,1.6,-29.5,5.73,2.36,-27.1,30.6
2012-07-08 01:20:00,0.0,,,,,,,,,,,0.90,-4.07,-26.77,-60,544,-925,26.3,19.1,0.8,26.2,1.5,-29.7,5.73,2.35,-27.1,30.6
2012-07-08 01:21:00,0.0,,,,,,,,,,,0.90,-3.04,-26.75,-61,544,-926,26.3,19.2,1.0,26.2,1.5,-29.8,5.73,2.34,-27.1,30.6
2012-07-08 01:22:00,0.0,,,,,,,,,,,0.91,-2.07,-26.74,-61,544,-925,26.3,18.4,0.4,26.2,1.5,-29.9,5.73,2.35,-27.1,30.6
2012-07-08 01:23:00,0.0,,,,,,,,,,,0.93,-1.15,-26.73,-61,544,-926,26.3,18.8,0.6,26.2,1.5,-30.1,5.73,2.36,-27.1,30.6
2012-07-08 01:24:00,0.0,,,,,,,,,,,0.93,-0.28,-26.71,-61,544,-925,26.3,19.1,0.9,26.2,1.5,-30.2,5.73,2.36,-27.1,30.6
2012-07-08 01:25:00,0.0,,,,,,,,,,,0.94,0.55,-26.70,-61,544,-925,26.3,18.8,0.7,26.2,1.4,-30.3,5.73,2.36,-27.1,30.6
2012-07-08 01:26:00,0.0,,,,,,,,,,,0.92,1.32,-26.68,-61,544,-926,26.3,19.1,0.9,26.2,1.4,-30.3,5.73,2.34,-27.0,30.6
2012-07-08 01:27:00,0.0,,,,,,,,,,,0.93,2.05,-26.66,-61,544,-925,26.3,19.0,0.8,26.2,1.4,-30.5,5.73,2.34,-27.0,30.7
2012-07-08 01:28:00,0.0,,,,,,,,,,,0.95,2.66,-26.64,-61,544,-926,26.3,18.7,0.6,26.2,1.4,-30.5,5.73,2.36,-27.0,30.7
2012-07-08 01:29:00,0.0,,,,,,,,,,,0.96,2.91,-26.63,-61,544,-926,26.3,19.2,1.0,26.2,1.4,-30.6,5.73,2.37,-27.0,30.7
2012-07-08 01:30:00,0.0,,,,,,,,,,,0.96,3.12,-26.61,-61,544,-925,26.3,18.8,0.7,26.2,1.4,-30.7,5.73,2.36,-27.0,30.7
2012-07-08 01:31:00,0.0,,,,,,,,,,,0.95,3.55,-26.60,-61,544,-926,26.3,19.3,1.1,26.2,1.4,-30.7,5.73,2.35,-27.0,30.7
2012-07-08 01:32:00,0.0,,,,,,,,,,,0.96,4.08,-26.58,-61,544,-926,26.3,18.7,0.7,26.2,1.4,-30.7,5.73,2.34,-27.0,30.7
2012-07-08 01:33:00,0.0,,,,,,,,,,,0.94,4.61,-26.57,-61,544,-926,26.3,19.1,1.0,26.3,1.4,-30.9,5.73,2.35,-27.0,30.7
2012-07-08 01:34:00,0.0,,,,,,,,,,,0.94,5.13,-26.55,-61,544,-926,26.3,18.6,0.6,26.3,1.4,-30.9,5.73,2.37,-27.0,30.7
2012-07-08 01:35:00,0.0,,,,,,,,,,,0.92,5.64,-26.53,-61,544,-925,26.3,18.0,0.1,26.3,1.4,-30.9,5.73,2.36,-27.0,30.8
2012-07-08 01:36:00,0.0,,,,,,,,,,,0.93,6.12,-26.52,-61,544,-926,26.3,18.8,0.7,26.3,1.4,-30.9,5.73,2.35,-27.0,30.7
2012-07-08 01:37:00,0.0,,,,,,,,,,,0.93,6.58,-26.51,-61,544,-925,26.3,18.5,0.5,26.3,1.4,-30.9,5.73,2.34,-27.0,30.8
2012-07-08 01:38:00,0.0,,,,,,,,,,,0.93,7.03,-26.49,-61,544,-926,26.4,18.0,0.1,26.3,1.4,-30.9,5.73,2.34,-27.0,30.8
2012-07-08 01:39:00,0.0,,,,,,,,,,,0.91,7.47,-26.48,-61,544,-926,26.4,18.0,0.1,26.3,1.4,-30.9,5.73,2.36,-27.0,30.7
2012-07-08 01:40:00,0.0,,,,,,,,,,,0.93,7.88,-26.47,-61,544,-926,26.4,18.5,0.5,26.3,1.4,-30.9,5.73,2.36,-27.0,30.8
2012-07-08 01:41:00,0.0,,,,,,,,,,,0.92,8.28,-26.46,-61,544,-926,26.4,18.5,0.5,26.3,1.4,-30.9,5.73,2.35,-27.0,30.8
2012-07-08 01:42:00,0.0,,,,,,,,,,,0.94,8.67,-26.44,-61,544,-925,26.4,18.6,0.6,26.3,1.3,-31.0,5.73,2.34,-27.0,30.8
2012-07-08 01:43:00,0.0,,,,,,,,,,,0.94,9.04,-26.43,-61,544,-926,26.4,18.5,0.5,26.3,1.3,-31.1,5.73,2.34,-27.0,30.8
2012-07-08 01:44:00,0.0,,,,,,,,,,,0.93,9.41,-26.41,-61,544,-926,26.4,18.9,0.8,26.3,1.3,-31.1,5.73,2.35,-27.0,30.9
2012-07-08 01:45:00,0.0,,,,,,,,,,,0.94,9.76,-26.40,-61,544,-926,26.4,19.2,1.1,26.3,1.3,-31.1,5.73,2.36,-27.0,30.8
2012-07-08 01:46:00,0.0,,,,,,,,,,,0.93,10.10,-26.39,-61,544,-926,26.4,19.2,1.0,26.3,1.3,-31.0,5.73,2.36,-27.0,30.8
2012-07-08 01:47:00,0.0,,,,,,,,,,,0.95,10.44,-26.38,-61,544,-926,26.4,18.6,0.6,26.3,1.3,-31.1,5.73,2.34,-27.0,30.8
2012-07-08 01:48:00,0.0,,,,,,,,,,,0.94,10.76,-26.37,-61,544,-926,26.4,18.3,0.4,26.3,1.3,-31.1,5.73,2.33,-27.0,30.8
2012-07-08 01:49:00,0.0,,,,,,,,,,,0.95,11.07,-26.36,-61,544,-926,26.4,18.2,0.3,26.3,1.3,-31.0,5.73,2.35,-27.0,30.8
2012-07-08 01:50:00,0.0,,,,,,,,,,,0.95,11.37,-26.35,-61,544,-926,26.5,18.6,0.7,26.3,1.3,-31.1,5.73,2.36,-27.0,30.8
2012-07-08 01:51:00,0.0,,,,,,,,,,,0.94,11.67,-26.34,-61,544,-926,26.5,18.5,0.6,26.4,1.3,-31.1,5.73,2.36,-27.0,30.8
2012-07-08 01:52:00,0.0,,,,,,,,,,,0.95,11.94,-26.33,-61,544,-926,26.5,18.5,0.6,26.4,1.3,-31.0,5.73,2.34,-27.0,30.9
2012-07-08 01:53:00,0.0,,,,,,,,,,,0.94,12.21,-26.32,-61,544,-926,26.5,18.4,0.5,26.4,1.3,-31.0,5.73,2.33,-27.0,30.9
2012-07-08 01:54:00,0.0,,,,,,,,,,,0.95,12.47,-26.31,-61,544,-925,26.5,19.0,0.9,26.4,1.3,-31.0,5.73,2.34,-27.0,30.9
2012-07-08 01:55:00,0.0,,,,,,,,,,,0.95,12.72,-26.30,-61,545,-926,26.5,18.2,0.4,26.4,1.3,-31.0,5.73,2.36,-27.0,30.9
2012-07-08 01:56:00,0.0,,,,,,,,,,,0.94,12.95,-26.29,-61,544,-925,26.5,19.0,1.0,26.4,1.3,-31.1,5.73,2.36,-27.0,30.9
2012-07-08 01:57:00,0.0,,,,,,,,,,,0.95,13.18,-26.28,-61,544,-926,26.5,18.8,0.9,26.4,1.3,-31.0,5.73,2.34,-27.0,30.9
2012-07-08 01:58:00,0.0,,,,,,,,,,,0.96,13.41,-26.27,-61,544,-926,26.5,18.9,0.9,26.4,1.3,-31.0,5.73,2.34,-26.9,30.8
2012-07-08 01:59:00,0.0,,,,,,,,,,,0.96,13.61,-26.27,-61,545,-926,26.5,19.0,1.0,26.4,1.3,-31.1,5.73,2.35,-27.0,30.8
2012-07-08 02:00:00,0.0,,,,,,,,,,,0.95,13.82,-26.26,-61,545,-926,26.5,18.4,0.6,26.4,1.3,-31.0,5.73,2.36,-26.9,30.9
2012-07-08 02:01:00,0.0,,,,,,,,,,,0.95,14.01,-26.25,-61,545,-926,26.5,18.4,0.5,26.4,1.3,-31.0,5.73,2.36,-27.0,30.9
2012-07-08 02:02:00,0.0,,,,,,,,,,,0.95,14.20,-26.24,-61,545,-926,26.5,18.6,0.7,26.4,1.3,-31.0,5.73,2.35,-27.0,30.9
2012-07-08 02:03:00,0.0,,,,,,,,,,,0.95,14.37,-26.24,-61,545,-926,26.5,18.6,0.7,26.4,1.3,-31.0,5.73,2.34,-27.0,30.9
2012-07-08 02:04:00,0.0,,,,,,,,,,,0.95,14.54,-26.23,-61,545,-926,26.5,17.9,0.2,26.4,1.3,-31.0,5.73,2.34,-27.0,30.9
2012-07-08 02:05:00,0.0,,,,,,,,,,,0.95,14.71,-26.22,-61,545,-926,26.5,18.1,0.3,26.4,1.3,-31.0,5.73,2.35,-27.0,30.9
2012-07-08 02:06:00,0.0,,,,,,,,,,,0.95,14.86,-26.21,-61,545,-926,26.6,17.6,-0.0,26.4,1.3,-31.0,5.73,2.36,-27.0,30.9
2012-07-08 02:07:00,0.0,,,,,,,,,,,0.96,15.02,-26.20,-61,545,-926,26.5,17.0,-0.5,26.5,1.3,-31.1,5.73,2.35,-27.0,31.0
2012-07-08 02:08:00,0.0,1.8950,0.0010,390.61,0.32,57.0,28.1,138.03,33.33,24.65,36.38,0.96,15.16,-26.20,-61,545,-926,26.5,16.7,-0.8,26.5,1.3,-31.0,5.73,2.34,-27.0,31.0
2012-07-08 02:09:00,0.0,1.8955,0.0014,390.74,0.33,59.0,40.9,138.03,33.32,24.65,36.38,0.96,15.29,-26.19,-61,545,-926,26.6,17.6,-0.0,26.5,1.3,-31.0,5.73,2.34,-27.0,31.0
2012-07-08 02:10:00,0.0,1.8949,0.0010,390.80,0.32,61.1,28.7,138.03,33.31,24.65,36.38,0.95,15.41,-26.18,-61,545,-926,26.6,17.9,0.2,26.5,1.3,-31.0,5.73,2.34,-27.0,31.0
2012-07-08 02:11:00,0.0,,,,,,,,,,,0.95,15.54,-26.17,-61,545,-926,26.6,17.8,0.1,26.5,1.3,-31.0,5.73,2.36,-27.0,31.0
2012-07-08 02:12:00,0.0,,,,,,,,,,,0.95,15.66,-26.16,-61,545,-926,26.6,17.9,0.2,26.5,1.3,-31.0,5.73,2.36,-27.1,30.9
2012-07-08 02:13:00,0.0,,,,,,,,,,,0.94,15.77,-26.15,-61,545,-926,26.5,18.3,0.5,26.5,1.3,-31.0,5.73,2.34,-27.0,31.0
2012-07-08 02:14:00,0.0,,,,,,,,,,,0.96,15.89,-26.14,-61,545,-926,26.6,18.5,0.6,26.5,1.3,-31.0,5.73,2.34,-27.0,31.0
2012-07-08 02:15:00,0.0,,,,,,,,,,,0.95,16.00,-26.14,-61,545,-926,26.6,18.4,0.6,26.5,1.3,-31.0,5.73,2.34,-27.0,30.9
2012-07-08 02:16:00,0.0,,,,,,,,,,,0.95,16.09,-26.13,-61,545,-926,26.6,18.3,0.6,26.5,1.3,-31.0,5.73,2.36,-27.0,30.9
2012-07-08 02:17:00,0.0,,,,,,,,,,,0.95,16.19,-26.12,-61,545,-926,26.6,18.6,0.8,26.5,1.3,-31.0,5.73,2.36,-27.0,31.0
2012-07-08 02:18:00,0.0,,,,,,,,,,,0.93,16.28,-26.12,-61,545,-926,26.6,18.3,0.5,26.5,1.3,-31.0,5.73,2.35,-27.1,31.0
2012-07-08 02:19:00,0.0,,,,,,,,,,,0.96,16.37,-26.12,-61,545,-926,26.6,18.1,0.4,26.5,1.3,-31.0,5.73,2.34,-27.0,31.0
2012-07-08 02:20:00,0.0,,,,,,,,,,,0.93,16.45,-26.10,-61,545,-926,26.6,18.8,0.9,26.5,1.3,-31.0,5.73,2.34,-27.0,31.0
2012-07-08 02:21:00,0.0,,,,,,,,,,,1.12,-5.38,-45.09,-61,545,-926,26.6,18.9,1.0,26.5,1.3,-31.0,5.42,2.40,-31.2,31.0
2012-07-08 02:22:00,0.0,,,,,,,,,,,0.95,16.61,-26.10,-61,545,-926,26.6,19.8,1.7,26.5,1.3,-31.0,5.73,2.36,-27.1,31.0
2012-07-08 02:23:00,0.0,,,,,,,,,,,0.94,16.69,-26.09,-61,545,-926,26.6,18.8,1.0,26.5,1.3,-31.0,5.73,2.36,-27.1,31.0
2012-07-08 02:24:00,0.0,,,,,,,,,,,0.95,16.74,-26.07,-61,545,-926,26.6,19.4,1.4,26.5,1.3,-31.0,5.73,2.34,-27.0,31.0
2012-07-08 02:25:00,0.0,,,,,,,,,,,0.94,16.82,-26.06,-61,545,-926,26.6,19.2,1.2,26.6,1.3,-31.0,5.73,2.34,-27.1,31.0
2012-07-08 02:26:00,0.0,,,,,,,,,,,0.95,16.90,-26.06,-61,545,-926,26.6,19.1,1.2,26.5,1.3,-31.0,5.73,2.35,-27.1,31.0
2012-07-08 02:27:00,0.0,,,,,,,,,,,0.96,16.96,-26.05,-61,545,-926,26.7,19.6,1.6,26.5,1.3,-31.0,5.73,2.36,-27.1,31.0
2012-07-08 02:28:00,0.0,,,,,,,,,,,0.94,17.01,-26.06,-61,545,-926,26.6,20.2,1.9,26.6,1.3,-30.9,5.73,2.36,-27.1,31.0
2012-07-08 02:29:00,0.0,,,,,,,,,,,0.94,17.07,-26.05,-61,545,-926,26.6,19.4,1.4,26.6,1.3,-31.0,5.73,2.35,-27.1,31.0
2012-07-08 02:30:00,0.0,,,,,,,,,,,0.96,17.11,-26.07,-61,545,-926,26.7,19.1,1.2,26.6,1.3,-31.0,5.73,2.34,-27.1,31.0
2012-07-08 02:31:00,0.0,,,,,,,,,,,0.94,17.17,-26.05,-61,545,-926,26.7,18.5,0.8,26.6,1.3,-30.9,5.73,2.34,-27.1,31.0
2012-07-08 02:32:00,0.0,,,,,,,,,,,0.94,17.22,-26.04,-61,545,-926,26.7,18.4,0.7,26.6,1.3,-30.9,5.73,2.35,-27.1,30.9
2012-07-08 02:33:00,0.0,,,,,,,,,,,0.95,17.26,-26.04,-61,545,-926,26.7,18.7,0.9,26.6,1.3,-31.0,5.73,2.36,-27.1,30.9
2012-07-08 02:34:00,0.0,,,,,,,,,,,0.95,17.29,-26.04,-61,545,-926,26.7,18.5,0.8,26.6,1.3,-30.9,5.73,2.36,-27.1,31.0
2012-07-08 02:35:00,0.0,,,,,,,,,,,0.97,17.36,-26.03,-61,545,-926,26.7,18.5,0.7,26.6,1.3,-31.0,5.73,2.34,-27.1,30.9
2012-07-08 02:36:00,0.0,,,,,,,,,,,0.95,17.41,-26.03,-61,545,-926,26.7,18.6,0.9,26.6,1.3,-30.9,5.73,2.34,-27.1,31.0
2012-07-08 02:37:00,0.0,,,,,,,,,,,0.94,17.44,-26.02,-61,545,-926,26.7,18.3,0.6,26.6,1.3,-31.0,5.73,2.34,-27.1,31.0
2012-07-08 02:38:00,0.0,,,,,,,,,,,0.94,17.48,-26.02,-61,545,-926,26.7,18.5,0.7,26.6,1.3,-30.9,5.73,2.35,-27.1,30.9
2012-07-08 02:39:00,0.0,,,,,,,,,,,0.95,17.52,-26.01,-61,545,-926,26.7,18.9,1.1,26.6,1.3,-30.9,5.73,2.36,-27.1,30.9
2012-07-08 02:40:00,0.0,,,,,,,,,,,0.95,17.55,-26.02,-61,545,-926,26.7,19.6,1.6,26.6,1.3,-30.9,5.73,2.35,-27.1,31.0
2012-07-08 02:41:00,0.0,,,,,,,,,,,0.95,17.59,-26.00,-61,545,-926,26.7,19.6,1.5,26.6,1.3,-30.9,5.73,2.34,-27.1,31.0
2012-07-08 02:42:00,0.0,,,,,,,,,,,0.97,17.61,-26.00,-61,545,-926,26.7,19.2,1.3,26.6,1.3,-30.9,5.73,2.34,-27.1,31.0
2012-07-08 02:43:00,0.0,,,,,,,,,,,0.94,17.64,-26.00,-61,545,-926,26.7,19.6,1.5,26.6,1.3,-30.9,5.73,2.35,-27.1,31.0
2012-07-08 02:44:00,0.0,,,,,,,,,,,0.95,17.67,-25.99,-61,545,-926,26.7,19.9,1.8,26.6,1.3,-30.9,5.73,2.36,-27.1,31.0
2012-07-08 02:45:00,0.0,,,,,,,,,,,0.97,17.70,-25.99,-61,545,-926,26.7,19.7,1.7,26.6,1.3,-31.0,5.73,2.36,-27.1,31.0
2012-07-08 02:46:00,0.0,,,,,,,,,,,0.94,17.72,-26.00,-61,546,-926,26.7,19.8,1.7,26.6,1.3,-31.0,5.73,2.35,-27.1,31.0
2012-07-08 02:47:00,0.0,,,,,,,,,,,0.93,17.76,-26.01,-61,545,-926,26.7,19.4,1.4,26.6,1.3,-30.9,5.73,2.34,-27.1,31.1
2012-07-08 02:48:00,0.0,,,,,,,,,,,0.95,17.77,-26.00,-61,545,-926,26.7,19.3,1.4,26.6,1.3,-30.9,5.73,2.34,-27.1,31.0
2012-07-08 02:49:00,0.0,,,,,,,,,,,0.95,17.80,-25.99,-61,545,-926,26.7,19.8,1.7,26.6,1.3,-30.9,5.73,2.35,-27.1,31.0
2012-07-08 02:50:00,0.0,,,,,,,,,,,0.94,17.83,-25.99,-61,545,-926,26.7,19.3,1.3,26.6,1.3,-30.9,5.73,2.36,-27.1,31.0
2012-07-08 02:51:00,0.0,,,,,,,,,,,0.94,17.85,-25.98,-61,545,-926,26.7,18.9,1.1,26.6,1.3,-31.0,5.73,2.36,-27.1,31.0
2012-07-08 02:52:00,0.0,,,,,,,,,,,0.95,17.87,-25.98,-61,545,-926,26.7,19.2,1.3,26.6,1.3,-30.9,5.73,2.36,-27.1,31.0
2012-07-08 02:53:00,0.0,,,,,,,,,,,0.95,17.89,-25.98,-61,545,-926,26.7,19.1,1.2,26.6,1.3,-30.9,5.73,2.35,-27.1,31.0
2012-07-08 02:54:00,0.0,,,,,,,,,,,0.94,17.90,-25.98,-61,545,-926,26.7,20.0,1.9,26.6,1.3,-30.9,5.73,2.34,-27.1,31.0
2012-07-08 02:55:00,0.0,,,,,,,,,,,0.96,17.92,-25.98,-61,545,-926,26.7,19.9,1.8,26.7,1.3,-30.9,5.73,2.35,-27.1,31.0
2012-07-08 02:56:00,0.0,,,,,,,,,,,0.95,17.94,-25.97,-61,546,-926,26.7,19.6,1.6,26.7,1.3,-30.9,5.73,2.36,-27.1,30.9
2012-07-08 02:57:00,0.0,,,,,,,,,,,0.95,17.95,-25.97,-61,545,-926,26.7,19.0,1.2,26.7,1.3,-30.9,5.73,2.36,-27.1,30.9
2012-07-08 02:58:00,0.0,,,,,,,,,,,0.93,17.97,-25.97,-61,545,-926,26.7,19.2,1.4,26.7,1.3,-30.9,5.73,2.36,-27.1,31.0
2012-07-08 02:59:00,0.0,,,,,,,,,,,0.96,17.99,-25.97,-61,545,-926,26.7,19.5,1.6,26.7,1.3,-30.9,5.73,2.35,-27.1,30.9
2012-07-08 03:00:00,0.0,,,,,,,,,,,0.95,18.00,-25.98,-61,546,-926,26.7,18.9,1.1,26.7,1.3,-30.9,5.73,2.34,-27.1,30.9
2012-07-08 03:01:00,0.0,,,,,,,,,,,0.95,18.01,-25.98,-61,546,-926,26.7,18.9,1.1,26.7,1.3,-30.9,5.73,2.34,-27.1,30.9
2012-07-08 03:02:00,0.0,,,,,,,,,,,0.96,18.03,-25.95,-61,546,-926,26.7,19.0,1.2,26.7,1.3,-30.9,5.73,2.35,-27.1,30.9
2012-07-08 03:03:00,0.0,,,,,,,,,,,1.06,17.93,-25.96,-61,546,-926,26.7,19.2,1.4,26.7,1.3,-30.9,5.73,2.36,-27.2,31.0
2012-07-08 03:04:00,0.0,,,,,,,,,,,1.07,16.54,-25.97,-61,546,-926,26.7,19.8,1.8,26.7,1.3,-30.9,5.73,2.36,-27.2,30.9
2012-07-08 03:05:00,0.0,,,,,,,,,,,1.05,14.32,-25.98,-61,546,-926,26.7,19.6,1.6,26.7,1.3,-30.9,5.73,2.36,-27.1,30.9
2012-07-08 03:06:00,0.0,,,,,,,,,,,1.09,12.00,-25.97,-61,546,-926,26.7,20.2,2.0,26.7,1.3,-30.9,5.73,2.36,-27.2,30.9
2012-07-08 03:07:00,0.0,,,,,,,,,,,1.00,9.70,-25.96,-61,546,-926,26.7,20.1,2.0,26.7,1.3,-30.9,5.73,2.35,-27.1,30.9
2012-07-08 03:08:00,0.0,1.8950,0.0010,390.61,0.32,57.0,28.1,138.03,33.33,24.65,36.38,1.03,7.48,-25.94,-61,546,-926,26.7,20.7,2.4,26.7,1.3,-30.8,5.73,2.35,-27.2,30.7
2012-07-08 03:09:00,0.0,1.8955,0.0014,390.74,0.33,59.0,40.9,138.03,33.32,24.65,36.38,1.11,5.36,-25.92,-61,546,-926,26.7,20.8,2.4,26.6,1.4,-30.7,5.73,2.35,-27.2,30.7
2012-07-08 03:10:00,0.0,1.8949,0.0010,390.80,0.32,61.1,28.7,138.03,33.31,24.65,36.38,1.03,3.34,-25.91,-61,546,-926,26.7,20.6,2.3,26.6,1.4,-30.7,5.73,2.35,-27.2,30.7
2012-07-08 03:11:00,0.0,,,,,,,,,,,1.00,1.43,-25.88,-61,546,-926,26.7,20.6,2.3,26.6,1.4,-30.7,5.73,2.35,-27.2,30.7
2012-07-08 03:12:00,0.0,,,,,,,,,,,1.11,-0.39,-25.86,-61,546,-926,26.7,20.2,2.0,26.6,1.4,-30.7,5.73,2.36,-27.2,30.7
2012-07-08 03:13:00,0.0,,,,,,,,,,,1.04,-2.07,-25.85,-61,546,-926,26.7,20.4,2.2,26.6,1.4,-30.7,5.73,2.36,-27.2,30.7
2012-07-08 03:14:00,0.0,,,,,,,,,,,0.98,-3.63,-25.83,-61,546,-926,26.7,20.8,2.4,26.7,1.4,-30.7,5.73,2.36,-27.2,30.7
2012-07-08 03:15:00,0.0,,,,,,,,,,,1.08,-4.96,-25.81,-61,546,-926,26.7,21.1,2.6,26.6,1.4,-30.7,5.73,2.36,-27.2,30.8
2012-07-08 03:16:00,0.0,,,,,,,,,,,1.07,-6.31,-25.80,-61,546,-926,26.7,20.9,2.5,26.6,1.4,-30.7,5.73,2.36,-27.2,30.8
2012-07-08 03:17:00,0.0,,,,,,,,,,,0.99,-6.98,-25.79,-61,546,-926,26.7,20.8,2.5,26.6,1.4,-30.7,5.73,2.37,-27.2,30.8
2012-07-08 03:18:00,0.0,,,,,,,,,,,1.02,-8.53,-25.78,-61,546,-926,26.7,20.5,2.3,26.6,1.4,-30.7,5.73,2.37,-27.2,30.8